This is the latest recevied weather packets stored in our database for station/object NR5ON-13. If no packets are shown the sender has not sent any weather packets the latest 10 day(s).
| Time | Temp. | Humidity | Pressure | Rain* | Wind** | Luminosity | Snow |
|---|---|---|---|---|---|---|---|
| 1778087617 | 10° C | 58% | 1016.8 hPa | 0 mm | - | - | - |
| 1778087322 | 10° C | 58% | 1016.8 hPa | 0 mm | - | - | - |
| 1778087007 | 10.56° C | 58% | 1016.8 hPa | 0 mm | - | - | - |
| 1778086714 | 10.56° C | 60% | 1016.7 hPa | 0 mm | - | - | - |
| 1778086423 | 10° C | 61% | 1016.5 hPa | 0 mm | - | - | - |
| 1778086108 | 10° C | 59% | 1016.5 hPa | 0 mm | - | - | - |
| 1778085813 | 10° C | 61% | 1016.4 hPa | 0 mm | - | - | - |
| 1778085520 | 9.44° C | 62% | 1016.4 hPa | 0 mm | - | - | - |
| 1778085208 | 9.44° C | 65% | 1016.5 hPa | 0 mm | - | - | - |
| 1778084915 | 8.89° C | 64% | 1016.5 hPa | 0 mm | - | - | - |
| 1778084622 | 8.89° C | 68% | 1016.5 hPa | 0 mm | - | - | - |
| 1778084307 | 8.89° C | 65% | 1016.6 hPa | 0 mm | - | - | - |
| 1778084012 | 8.89° C | 66% | 1016.6 hPa | 0 mm | - | - | - |
| 1778083717 | 8.33° C | 67% | 1016.6 hPa | 0 mm | - | - | - |
| 1778083426 | 8.33° C | 68% | 1016.7 hPa | 0 mm | - | - | - |
| 1778083111 | 8.33° C | 67% | 1016.8 hPa | 0 mm | - | - | - |
| 1778082819 | 8.33° C | 69% | 1016.8 hPa | 0 mm | - | - | - |
| 1778082524 | 8.33° C | 70% | 1016.9 hPa | 0 mm | - | - | - |
| 1778082208 | 7.78° C | 70% | 1016.9 hPa | 0 mm | - | - | - |
| 1778081913 | 7.78° C | 72% | 1016.9 hPa | 0 mm | - | - | - |
| 1778081617 | 7.78° C | 71% | 1016.9 hPa | 0 mm | - | - | - |
| 1778081304 | 7.78° C | 71% | 1016.8 hPa | 0 mm | - | - | - |
| 1778081013 | 7.22° C | 73% | 1016.9 hPa | 0 mm | - | - | - |
| 1778080720 | 7.22° C | 73% | 1016.9 hPa | 0 mm | - | - | - |
| 1778080408 | 7.22° C | 74% | 1016.9 hPa | 0 mm | - | - | - |
* Rain latest hour (hover to see other rain measurements)
** Current wind speed in m/s (hover to see current wind gust speed)